Regional Weather Roundup
Issued by NWS Kansas City/Pleasant Hill, MO

Home | Current Version | Previous Version | Text Only | Print | Product List | Glossary On
Versions: 1 2 3 4 5 6 7 8 9 10 11 12 13 14 15 16 17 18 19 20 21 22 23 24 25 26 27 28 29 30 31 32 33 34 35 36 37 38 39 40 41 42 43 44 45 46 47 48 49 50
000
ASUS43 KEAX 251110
RWREAX

WEATHER ROUNDUP FOR EASTERN KANSAS AND NORTHWEST MISSOURI
NATIONAL WEATHER SERVICE KANSAS CITY/PLEASANT HILL MO
500 AM CST SAT FEB 25 2017

KSZ040-057-103>105-MOZ028-029-037-043-251200-
...KANSAS CITY METROPOLITAN AREA...

CITY           SKY/WX    TMP DP  RH WIND       PRES   REMARKS
K.C. INTL      PTCLDY    23  15  71 N15G22    30.09R WCI  10
K.C. DOWNTOWN  PTCLDY    26  15  63 N9        30.11R WCI  17
LEES SUMMIT    CLOUDY    26  17  68 N14       30.09R WCI  14
OLATHE - IXD   CLEAR     21  17  84 NW9       30.11R WCI  11
OLATHE - OJC   CLEAR     21  18  88 NW10      30.09R WCI  10
LAWRENCE       CLEAR     19  16  88 W8        30.13R WCI   9

$$

MOZ001>008-011>017-020>025-030>033-038>040-044>046-053-054-251200-
...NORTHERN AND CENTRAL MISSOURI...

CITY           SKY/WX    TMP DP  RH WIND       PRES   REMARKS
ST. JOSEPH     CLEAR     21  16  81 NW9       30.11R WCI  11
MOSBY          SUNNY     27  14  59 N10       30.10R WCI  17
WARRENSBURG    MOCLDY    28  18  64 NW8       30.09R WCI  20
WHITEMAN AFB   MOCLDY    26  15  64 NW13      30.07R WCI  14
CLINTON        CLOUDY    25  18  74 W6        30.10R WCI  18
SEDALIA        PTCLDY    25  16  68 NW12G22   30.08R WCI  14
WARSAW         NOT AVBL
CHILLICOTHE      N/A     22  14  71 NW9       30.07R WCI  12
KIRKSVILLE     MOCLDY    20  14  77 NW13      29.99R WCI   7

$$

MOZ041-047>049-056>058-063>065-088>090-097-251200-
...EASTERN AND SOUTHERN MISSOURI...

CITY           SKY/WX    TMP DP  RH WIND       PRES   REMARKS
ST. LOUIS INTL FLURRIES  30  17  58 NW18G28   29.95R WCI  18
SPIRIT OF STL  CLOUDY    29  18  63 W17G26    29.97R WCI  17
COLUMBIA       CLOUDY    27  17  66 NW13      30.02R WCI  16
JEFFERSON CITY CLOUDY    27  16  63 W18       30.04R WCI  14
ROLLA          CLOUDY    25  16  68 W15G24    30.00R WCI  13
OSAGE BEACH    PTCLDY    25  16  68 NW9G20    30.08R WCI  15
SPRINGFIELD    PTCLDY    23  16  74 NW8       30.07S WCI  14
BRANSON        CLEAR     25  16  68 NW10      30.09R WCI  15
JOPLIN         PTCLDY    23  18  81 W7        30.14S WCI  15
WEST PLAINS    CLEAR     27  16  63 NW15G24   30.02R WCI  15

$$

IAZ060-094-KSZ022-034>040-054-083-096-NEZ052-066-093-251200-
...KANSAS...SOUTHEAST NEBRASKA AND IOWA...

CITY           SKY/WX    TMP DP  RH WIND       PRES   REMARKS
TOPEKA         CLEAR     22  17  81 W6        30.13S WCI  14
MANHATTAN      CLEAR     22  15  75 W6        30.16R WCI  14
EMPORIA        CLEAR     19  16  88 NW8       30.14R WCI   9
CHANUTE        CLEAR     21  16  81 W9        30.16R WCI  11
WICHITA        CLEAR     20  15  81 NW12      30.18F WCI   8
OMAHA          PTCLDY    17  10  74 NW10      30.10R WCI   5
LINCOLN        CLEAR     18  12  77 W6        30.13S WCI  10
FALLS CITY     CLEAR     20  14  77 NW10      30.11R WCI   9
LAMONI         CLEAR     17  11  77 NW13      30.02R WCI   4
DES MOINES     MOCLDY    19  11  70 NW15      30.00R WCI   5

$$




USA.gov is the U.S. government's official web portal to all federal, state and local government web resources and services.